******** Week 364 almanac for PRN-1 ******** ID: 1 Health: 0 Eccentricity: 0.00167798996 Time of Applicability(s): 589824 Orbital Inclination(rad): 0.9578116118 Rate of Right Ascen(r/s): -8.114623721e-09 SQRT(A) (m 1/2): 5153.567383 Right Ascen at Week(rad): 2.632600527 Argument of Perigee(rad): 0.1493414187 Mean Anom(rad): -2.994251478 Af0(s): 0.0002404221069 Af1(s/s): -7.275958e-12 week: 364 ******** Week 364 almanac for PRN-2 ******** ID: 2 Health: 0 Eccentricity: 0.0168299675 Time of Applicability(s): 589824 Orbital Inclination(rad): 0.9628989153 Rate of Right Ascen(r/s): -8.114623721e-09 SQRT(A) (m 1/2): 5153.526855 Right Ascen at Week(rad): 2.470210909 Argument of Perigee(rad): -0.7923317868 Mean Anom(rad): -1.478750364 Af0(s): 5.727924805e-05 Af1(s/s): 7.275958e-12 week: 364 ******** Week 364 almanac for PRN-3 ******** ID: 3 Health: 0 Eccentricity: 0.006632328033 Time of Applicability(s): 589824 Orbital Inclination(rad): 0.9939979789 Rate of Right Ascen(r/s): -7.360306586e-09 SQRT(A) (m 1/2): 5153.57373 Right Ascen at Week(rad): -2.662812009 Argument of Perigee(rad): 1.205523144 Mean Anom(rad): 1.217313375 Af0(s): 0.0004077378052 Af1(s/s): -1.455192e-11 week: 364 ******** Week 364 almanac for PRN-4 ******** ID: 4 Health: 0 Eccentricity: 0.00372838974 Time of Applicability(s): 589824 Orbital Inclination(rad): 0.9705927877 Rate of Right Ascen(r/s): -7.828897533e-09 SQRT(A) (m 1/2): 5153.662109 Right Ascen at Week(rad): -1.59298849 Argument of Perigee(rad): -2.870710972 Mean Anom(rad): -2.111048182 Af0(s): 4.069841309e-05 Af1(s/s): 0 week: 364 ******** Week 364 almanac for PRN-5 ******** ID: 5 Health: 0 Eccentricity: 0.005463123321 Time of Applicability(s): 589824 Orbital Inclination(rad): 0.980521718 Rate of Right Ascen(r/s): -7.486026109e-09 SQRT(A) (m 1/2): 5153.683594 Right Ascen at Week(rad): -2.722957089 Argument of Perigee(rad): 1.418773438 Mean Anom(rad): -1.440252915 Af0(s): -0.0001831428589 Af1(s/s): 0 week: 364 ******** Week 364 almanac for PRN-6 ******** ID: 6 Health: 0 Eccentricity: 0.003803730011 Time of Applicability(s): 589824 Orbital Inclination(rad): 0.9866216885 Rate of Right Ascen(r/s): -7.851755628e-09 SQRT(A) (m 1/2): 5153.608887 Right Ascen at Week(rad): 2.584053555 Argument of Perigee(rad): -0.5372775202 Mean Anom(rad): 2.504796633 Af0(s): -0.0004831052368 Af1(s/s): 0 week: 364 ******** Week 364 almanac for PRN-7 ******** ID: 7 Health: 0 Eccentricity: 0.02068519592 Time of Applicability(s): 589824 Orbital Inclination(rad): 0.9510045721 Rate of Right Ascen(r/s): -7.966046103e-09 SQRT(A) (m 1/2): 5153.553711 Right Ascen at Week(rad): -0.5841849 Argument of Perigee(rad): -1.981253035 Mean Anom(rad): 1.667650212 Af0(s): -0.000133400354 Af1(s/s): -3.637979e-12 week: 364 ******** Week 364 almanac for PRN-8 ******** ID: 8 Health: 0 Eccentricity: 0.01160097122 Time of Applicability(s): 589824 Orbital Inclination(rad): 0.9428972439 Rate of Right Ascen(r/s): -8.286059433e-09 SQRT(A) (m 1/2): 5153.646973 Right Ascen at Week(rad): 1.461958967 Argument of Perigee(rad): 0.5338196968 Mean Anom(rad): -1.802866723 Af0(s): 0.000369300415 Af1(s/s): -7.275958e-12 week: 364 ******** Week 364 almanac for PRN-9 ******** ID: 9 Health: 0 Eccentricity: 0.00334405899 Time of Applicability(s): 589824 Orbital Inclination(rad): 0.9648163913 Rate of Right Ascen(r/s): -7.874613723e-09 SQRT(A) (m 1/2): 5153.70166 Right Ascen at Week(rad): -1.657480848 Argument of Perigee(rad): 2.057896272 Mean Anom(rad): -1.208237946 Af0(s): 0.0006021857788 Af1(s/s): -3.637979e-12 week: 364 ******** Week 364 almanac for PRN-10 ******** ID: 10 Health: 0 Eccentricity: 0.01093292236 Time of Applicability(s): 589824 Orbital Inclination(rad): 0.9935305942 Rate of Right Ascen(r/s): -7.348877539e-09 SQRT(A) (m 1/2): 5153.61377 Right Ascen at Week(rad): -2.665320832 Argument of Perigee(rad): -2.256505963 Mean Anom(rad): 0.2235263925 Af0(s): -0.0004665244019 Af1(s/s): 0 week: 364 ******** Week 364 almanac for PRN-11 ******** ID: 11 Health: 0 Eccentricity: 0.002207279205 Time of Applicability(s): 589824 Orbital Inclination(rad): 0.9635041187 Rate of Right Ascen(r/s): -8.091765626e-09 SQRT(A) (m 1/2): 5153.539551 Right Ascen at Week(rad): 2.60211528 Argument of Perigee(rad): -2.322608326 Mean Anom(rad): -2.628375713 Af0(s): -0.0003037307495 Af1(s/s): 1.455192e-11 week: 364 ******** Week 364 almanac for PRN-12 ******** ID: 12 Health: 0 Eccentricity: 0.008933544159 Time of Applicability(s): 589824 Orbital Inclination(rad): 0.9594414664 Rate of Right Ascen(r/s): -7.668890868e-09 SQRT(A) (m 1/2): 5153.713379 Right Ascen at Week(rad): 0.5334152292 Argument of Perigee(rad): 1.569623371 Mean Anom(rad): 0.9747994758 Af0(s): -0.0004808442139 Af1(s/s): 0 week: 364 ******** Week 364 almanac for PRN-13 ******** ID: 13 Health: 0 Eccentricity: 0.01008844376 Time of Applicability(s): 589824 Orbital Inclination(rad): 0.9761235075 Rate of Right Ascen(r/s): -7.840326581e-09 SQRT(A) (m 1/2): 5153.614258 Right Ascen at Week(rad): -1.481882741 Argument of Perigee(rad): 0.9945124022 Mean Anom(rad): -2.035024754 Af0(s): 0.0005381234619 Af1(s/s): 0 week: 364 ******** Week 364 almanac for PRN-14 ******** ID: 14 Health: 0 Eccentricity: 0.006896972656 Time of Applicability(s): 589824 Orbital Inclination(rad): 0.9427893859 Rate of Right Ascen(r/s): -7.828897533e-09 SQRT(A) (m 1/2): 5153.61084 Right Ascen at Week(rad): 0.4782761849 Argument of Perigee(rad): -2.733288614 Mean Anom(rad): 0.8361846873 Af0(s): 0.0005863586182 Af1(s/s): 0 week: 364 ******** Week 364 almanac for PRN-15 ******** ID: 15 Health: 0 Eccentricity: 0.0166387558 Time of Applicability(s): 589824 Orbital Inclination(rad): 0.9428253386 Rate of Right Ascen(r/s): -8.068907531e-09 SQRT(A) (m 1/2): 5153.649902 Right Ascen at Week(rad): -1.802368254 Argument of Perigee(rad): 1.50793008 Mean Anom(rad): -2.798437857 Af0(s): 0.0003165432129 Af1(s/s): 3.637979e-12 week: 364 ******** Week 364 almanac for PRN-16 ******** ID: 16 Health: 0 Eccentricity: 0.01501512527 Time of Applicability(s): 589824 Orbital Inclination(rad): 0.9585426496 Rate of Right Ascen(r/s): -7.680319916e-09 SQRT(A) (m 1/2): 5153.621582 Right Ascen at Week(rad): 0.5503290901 Argument of Perigee(rad): 0.9317090716 Mean Anom(rad): -0.7611147535 Af0(s): 0.0001884185791 Af1(s/s): 7.275958e-12 week: 364 ******** Week 364 almanac for PRN-17 ******** ID: 17 Health: 0 Eccentricity: 0.01261806488 Time of Applicability(s): 589824 Orbital Inclination(rad): 0.9585066969 Rate of Right Ascen(r/s): -8.160339911e-09 SQRT(A) (m 1/2): 5153.559082 Right Ascen at Week(rad): 1.567222032 Argument of Perigee(rad): -1.115520117 Mean Anom(rad): -1.848769301 Af0(s): -8.29041748e-05 Af1(s/s): -1.091394e-11 week: 364 ******** Week 364 almanac for PRN-18 ******** ID: 18 Health: 0 Eccentricity: 0.005818843842 Time of Applicability(s): 589824 Orbital Inclination(rad): 0.9715754941 Rate of Right Ascen(r/s): -7.988904198e-09 SQRT(A) (m 1/2): 5153.583496 Right Ascen at Week(rad): 2.578550549 Argument of Perigee(rad): -2.871069375 Mean Anom(rad): 2.451656707 Af0(s): -0.0003044844238 Af1(s/s): 1.091394e-11 week: 364 ******** Week 364 almanac for PRN-19 ******** ID: 19 Health: 0 Eccentricity: 0.01126861572 Time of Applicability(s): 589824 Orbital Inclination(rad): 0.957661809 Rate of Right Ascen(r/s): -8.194627053e-09 SQRT(A) (m 1/2): 5153.675781 Right Ascen at Week(rad): 1.611110511 Argument of Perigee(rad): 2.946425433 Mean Anom(rad): -0.07099155231 Af0(s): 0.000550182251 Af1(s/s): 0 week: 364 ******** Week 364 almanac for PRN-20 ******** ID: 20 Health: 0 Eccentricity: 0.002230644226 Time of Applicability(s): 589824 Orbital Inclination(rad): 0.9602084568 Rate of Right Ascen(r/s): -7.954617056e-09 SQRT(A) (m 1/2): 5153.700195 Right Ascen at Week(rad): -1.652032145 Argument of Perigee(rad): -1.942229402 Mean Anom(rad): 0.9100752986 Af0(s): 7.159906006e-05 Af1(s/s): 2.182787e-11 week: 364 ******** Week 364 almanac for PRN-21 ******** ID: 21 Health: 0 Eccentricity: 0.0008196830749 Time of Applicability(s): 589824 Orbital Inclination(rad): 0.9633962606 Rate of Right Ascen(r/s): -7.657461821e-09 SQRT(A) (m 1/2): 5153.739258 Right Ascen at Week(rad): -2.657562919 Argument of Perigee(rad): -0.2296420922 Mean Anom(rad): 0.5910114141 Af0(s): 0.000326340979 Af1(s/s): 3.637979e-12 week: 364 ******** Week 364 almanac for PRN-22 ******** ID: 22 Health: 0 Eccentricity: 0.01203393936 Time of Applicability(s): 589824 Orbital Inclination(rad): 0.9579973673 Rate of Right Ascen(r/s): -7.691748963e-09 SQRT(A) (m 1/2): 5153.580566 Right Ascen at Week(rad): 0.5536861711 Argument of Perigee(rad): -0.9926799393 Mean Anom(rad): -1.201476596 Af0(s): -1.884185791e-05 Af1(s/s): 7.275958e-12 week: 364 ******** Week 364 almanac for PRN-23 ******** ID: 23 Health: 0 Eccentricity: 0.006089687347 Time of Applicability(s): 589824 Orbital Inclination(rad): 0.9885151961 Rate of Right Ascen(r/s): -7.406022776e-09 SQRT(A) (m 1/2): 5153.670898 Right Ascen at Week(rad): -2.697548285 Argument of Perigee(rad): -2.739577711 Mean Anom(rad): 1.294318386 Af0(s): 0.0004996860718 Af1(s/s): 3.637979e-12 week: 364 ******** Week 364 almanac for PRN-24 ******** ID: 24 Health: 0 Eccentricity: 0.01797866821 Time of Applicability(s): 589824 Orbital Inclination(rad): 0.9349517028 Rate of Right Ascen(r/s): -8.206056101e-09 SQRT(A) (m 1/2): 5153.580078 Right Ascen at Week(rad): -0.6932787974 Argument of Perigee(rad): 1.139812141 Mean Anom(rad): 2.649895636 Af0(s): -4.069841309e-05 Af1(s/s): 1.818989e-11 week: 364 ******** Week 364 almanac for PRN-25 ******** ID: 25 Health: 0 Eccentricity: 0.01289510727 Time of Applicability(s): 589824 Orbital Inclination(rad): 0.9478347446 Rate of Right Ascen(r/s): -7.783181343e-09 SQRT(A) (m 1/2): 5153.666016 Right Ascen at Week(rad): 0.4392607917 Argument of Perigee(rad): 1.159177151 Mean Anom(rad): 0.8592756672 Af0(s): 0.0003414144653 Af1(s/s): -3.637979e-12 week: 364 ******** Week 364 almanac for PRN-26 ******** ID: 26 Health: 0 Eccentricity: 0.0110244751 Time of Applicability(s): 589824 Orbital Inclination(rad): 0.92861804 Rate of Right Ascen(r/s): -7.954617056e-09 SQRT(A) (m 1/2): 5153.685059 Right Ascen at Week(rad): 0.3641485385 Argument of Perigee(rad): 0.7114618626 Mean Anom(rad): 0.03732486848 Af0(s): -0.0002765984741 Af1(s/s): -3.637979e-12 week: 364 ******** Week 364 almanac for PRN-27 ******** ID: 27 Health: 0 Eccentricity: 0.01438188553 Time of Applicability(s): 589824 Orbital Inclination(rad): 0.9519752943 Rate of Right Ascen(r/s): -8.217485148e-09 SQRT(A) (m 1/2): 5153.616211 Right Ascen at Week(rad): 1.494290159 Argument of Perigee(rad): 0.8903766034 Mean Anom(rad): -1.695559224 Af0(s): -7.386008301e-05 Af1(s/s): -1.455192e-11 week: 364 ******** Week 364 almanac for PRN-28 ******** ID: 28 Health: 0 Eccentricity: 0.0003824234009 Time of Applicability(s): 589824 Orbital Inclination(rad): 0.9619102168 Rate of Right Ascen(r/s): -7.897471818e-09 SQRT(A) (m 1/2): 5153.504395 Right Ascen at Week(rad): -0.6095603727 Argument of Perigee(rad): -0.3097843493 Mean Anom(rad): 2.292286365 Af0(s): -0.0004446678467 Af1(s/s): 7.275958e-12 week: 364 ******** Week 364 almanac for PRN-29 ******** ID: 29 Health: 0 Eccentricity: 0.003457546234 Time of Applicability(s): 589824 Orbital Inclination(rad): 0.9611612027 Rate of Right Ascen(r/s): -8.148910863e-09 SQRT(A) (m 1/2): 5153.69043 Right Ascen at Week(rad): 1.584049008 Argument of Perigee(rad): 2.751536469 Mean Anom(rad): -1.852578037 Af0(s): -0.0002735837769 Af1(s/s): 7.275958e-12 week: 364 ******** Week 364 almanac for PRN-30 ******** ID: 30 Health: 0 Eccentricity: 0.008169174194 Time of Applicability(s): 589824 Orbital Inclination(rad): 0.9362759597 Rate of Right Ascen(r/s): -8.148910863e-09 SQRT(A) (m 1/2): 5153.678223 Right Ascen at Week(rad): -0.5936610514 Argument of Perigee(rad): -2.296417177 Mean Anom(rad): 1.456826723 Af0(s): 0.0001394297485 Af1(s/s): 1.455192e-11 week: 364 ******** Week 364 almanac for PRN-31 ******** ID: 31 Health: 0 Eccentricity: 0.01083135605 Time of Applicability(s): 589824 Orbital Inclination(rad): 0.9547796029 Rate of Right Ascen(r/s): -7.954617056e-09 SQRT(A) (m 1/2): 5153.524902 Right Ascen at Week(rad): -0.5598220943 Argument of Perigee(rad): 0.9417642108 Mean Anom(rad): 0.5842163586 Af0(s): -0.0001243562622 Af1(s/s): 3.637979e-12 week: 364 ******** Week 364 almanac for PRN-32 ******** ID: 32 Health: 0 Eccentricity: 0.009389400482 Time of Applicability(s): 589824 Orbital Inclination(rad): 0.9678304239 Rate of Right Ascen(r/s): -7.863184676e-09 SQRT(A) (m 1/2): 5153.688477 Right Ascen at Week(rad): -1.640362131 Argument of Perigee(rad): -1.985363998 Mean Anom(rad): -1.140724815 Af0(s): -1.130511475e-05 Af1(s/s): 1.818989e-11 week: 364